Zurück zum Katalog

BREEZE-M R/B

AktivHEO
NORAD 64468·ROCKET BODY·🇷🇺 Russia

Gestartet Jun 19, 2025 von Plesetsk Cosmodrome

Loading…

Nächste Überflüge (nächste 24 Stunden)

TLE

VeraltetSource: Space-Track

Epoche: Jun 17, 2026, 01:22 UTC

1 64468U 25131B   26168.05694913 -.00000180  00000-0  00000-0 0  9990
2 64468   0.1988  23.8522 3855369  81.3566 299.8771  1.04431882  3788

Verfolge BREEZE-M R/B in Echtzeit mit AllMySat

Download on the App Store